Weather History for Martinsburg, WV

Change the Weather History Date:

Thursday, November 8, 2012

  Actual Average Record
Temperature  
Mean Temperature 45 °F 47 °F  
Max Temperature 54 °F 58 °F 80 °F (1975)
Min Temperature 35 °F 36 °F 17 °F (1960)
Degree Days  
Heating Degree Days 20 18  
Month to date heating degree days 189 137  
Since 1 July heating degree days 579 583  
Cooling Degree Days 0 0  
Month to date cooling degree days 0 0  
Year to date cooling degree days 1145 895  
Moisture  
Dew Point 17 °F    
Average Humidity 37    
Maximum Humidity 57    
Minimum Humidity 16    
Precipitation  
Precipitation 0.00 in 0.10 in 2.16 in (1996)
Month to date precipitation T 0.82  
Year to date precipitation 28.63 33.68  
Sea Level Pressure  
Sea Level Pressure 30.02 in    
Wind  
Wind Speed 11 mph (NW)    
Max Wind Speed 23 mph    
Max Gust Speed 31 mph    
Visibility 10 miles    
Events      
T = Trace of Precipitation, MM = Missing Value Source: NWS Daily Summary

Daily Weather History Graph

Daily Weather History Graph

Search for Another Location

Airport:

Trip Planner

Search our weather history database for the weather conditions in past years. The results will help you decide how hot, cold, wet, or windy it might be!

Date:

Astronomy

Nov. 08, 2012 Rise Set
Actual Time 6:48 AM EST 5:02 PM EST
Civil Twilight 6:20 AM EST 5:30 PM EST
Nautical Twilight 5:47 AM EST 6:02 PM EST
Astronomical Twilight 5:16 AM EST 6:34 PM EST
Moon 12:43 AM EST (11/8) 1:41 PM EST (11/8)
Length of Visible Light 11h 10m
Length of Day
10h 14m
Waning Crescent, 33% of the Moon is Illuminated
Nov 8
Waning Crescent
Nov 13
New
Nov 20
First Quarter
Nov 28
Full
Dec 6
Last Quarter

Hourly Weather History & Observations

Time (EST) Temp. Windchill Dew Point Humidity Pressure Visibility Wind Dir Wind Speed Gust Speed Precip Events Conditions
12:53 AM 39.9 °F 35.1 °F 17.1 °F 40% 29.96 in 10.0 mi NNW 6.9 mph - N/A   Clear
2:53 AM 39.0 °F 34.8 °F 15.1 °F 38% 29.96 in 10.0 mi NW 5.8 mph - N/A   Clear
3:53 AM 37.9 °F 31.5 °F 15.1 °F 39% 29.97 in 10.0 mi NW 9.2 mph - N/A   Clear
4:53 AM 37.9 °F 30.5 °F 14.0 °F 38% 29.97 in 10.0 mi NNW 11.5 mph - N/A   Clear
5:53 AM 37.0 °F 31.6 °F 12.9 °F 37% 29.97 in 10.0 mi WNW 6.9 mph - N/A   Clear
6:53 AM 37.9 °F 33.5 °F 12.9 °F 36% 29.99 in 10.0 mi NW 5.8 mph - N/A   Clear
7:53 AM 37.9 °F - 10.9 °F 33% 30.01 in 10.0 mi Calm Calm - N/A   Clear
8:53 AM 42.1 °F 38.4 °F 12.0 °F 29% 30.03 in 10.0 mi NNW 5.8 mph - N/A   Clear
9:53 AM 45.0 °F 38.2 °F 12.0 °F 26% 30.03 in 10.0 mi NW 15.0 mph 27.6 mph N/A   Clear
10:53 AM 46.9 °F - 12.0 °F 24% 30.03 in 10.0 mi NNW 21.9 mph 27.6 mph N/A   Clear
12:53 PM 52.0 °F - 8.1 °F 17% 29.99 in 10.0 mi NW 13.8 mph 23.0 mph N/A   Clear
1:53 PM 54.0 °F - 9.0 °F 17% 29.97 in 10.0 mi NW 12.7 mph 23.0 mph N/A   Clear
2:53 PM 53.1 °F - 9.0 °F 17% 29.98 in 10.0 mi NNW 17.3 mph 24.2 mph N/A   Clear
3:53 PM 51.1 °F - 12.9 °F 22% 29.99 in 10.0 mi NW 12.7 mph 17.3 mph N/A   Clear
4:53 PM 48.0 °F - 17.1 °F 29% 30.01 in 10.0 mi NW 8.1 mph - N/A   Clear
5:53 PM 46.9 °F - 23.0 °F 39% 30.04 in 10.0 mi NW 10.4 mph - N/A   Clear
6:53 PM 46.0 °F 38.0 °F 24.1 °F 42% 30.06 in 10.0 mi NW 21.9 mph 27.6 mph N/A   Clear
7:53 PM 44.1 °F 40.1 °F 25.0 °F 47% 30.08 in 10.0 mi NW 6.9 mph - N/A   Clear
8:53 PM 44.1 °F 39.5 °F 27.0 °F 51% 30.09 in 10.0 mi North 8.1 mph - N/A   Clear
9:53 PM 43.0 °F 38.8 °F 28.0 °F 56% 30.10 in 10.0 mi NW 6.9 mph - N/A   Clear
10:53 PM 43.0 °F 36.0 °F 28.0 °F 56% 30.10 in 10.0 mi NW 13.8 mph - N/A   Clear
11:53 PM 43.0 °F 36.8 °F 28.9 °F 58% 30.11 in 10.0 mi WNW 11.5 mph 23.0 mph N/A   Clear